This is the latest recevied weather packets stored in our database for station/object DH5DY-6. If no packets are shown the sender has not sent any weather packets the latest 10 day(s).
| Time | Temp. | Humidity | Pressure | Rain* | Wind** | Luminosity | Snow |
|---|---|---|---|---|---|---|---|
| 1788104457 | 22.22° C | 56% | 1011.2 hPa | 0 mm | - | 190 W/m² | - |
| 1788103857 | 22.22° C | 55% | 1011.2 hPa | 0 mm | - | 246 W/m² | - |
| 1788102657 | 22.22° C | 55% | 1011.3 hPa | 0 mm | - | 232 W/m² | - |
| 1788102057 | 22.22° C | 54% | 1011.3 hPa | 0 mm | - | 306 W/m² | - |
| 1788100857 | 22.22° C | 56% | 1011.3 hPa | 0 mm | - | 383 W/m² | - |
| 1788100257 | 22.22° C | 56% | 1011.2 hPa | 0 mm | - | 359 W/m² | - |
| 1788099057 | 22.78° C | 55% | 1011.4 hPa | 0 mm | - | 429 W/m² | - |
| 1788098456 | 22.78° C | 56% | 1011.4 hPa | 0 mm | - | 473 W/m² | - |
| 1788097256 | 22.78° C | 57% | 1011.3 hPa | 0 mm | - | 512 W/m² | - |
| 1788096657 | 22.78° C | 57% | 1011.3 hPa | 0 mm | - | 323 W/m² | - |
| 1788094856 | 22.22° C | 59% | 1011.3 hPa | 0 mm | - | 461 W/m² | - |
| 1788093656 | 21.67° C | 58% | 1011.3 hPa | 0 mm | - | 555 W/m² | - |
| 1788093059 | 22.22° C | 59% | 1011.3 hPa | 0 mm | - | 538 W/m² | - |
| 1788091857 | 21.67° C | 61% | 1011.1 hPa | 0 mm | - | 197 W/m² | - |
| 1788091257 | 21.11° C | 62% | 1011.3 hPa | 0 mm | - | 694 W/m² | - |
| 1788090056 | 21.67° C | 63% | 1011.1 hPa | 0 mm | - | 777 W/m² | - |
| 1788089456 | 21.11° C | 63% | 1011.2 hPa | 0 mm | - | 849 W/m² | - |
| 1788088256 | 20.56° C | 66% | 1011.2 hPa | 0 mm | - | 605 W/m² | - |
| 1788087656 | 20° C | 69% | 1011.2 hPa | 0 mm | - | 526 W/m² | - |
| 1788086456 | 20° C | 68% | 1011.3 hPa | 0 mm | - | 369 W/m² | - |
| 1788085860 | 19.44° C | 70% | 1011.2 hPa | 0 mm | - | 272 W/m² | - |
| 1788084656 | 19.44° C | 69% | 1011.2 hPa | 0 mm | - | 144 W/m² | - |
| 1788084056 | 19.44° C | 69% | 1011.1 hPa | 0 mm | - | 169 W/m² | - |
| 1788082855 | 19.44° C | 71% | 1010.9 hPa | 0 mm | - | 316 W/m² | - |
| 1788082255 | 19.44° C | 72% | 1011 hPa | 0 mm | - | 144 W/m² | - |
* Rain latest hour (hover to see other rain measurements)
** Current wind speed in m/s (hover to see current wind gust speed)